Location: Unspecified
(0.0000°N, 0.0000°E)
Time: 19:20:21
(UTC+00:00)

Envisat - Pass Details

Date: 06 December 2018
Orbit: 764 x 766 km, 98.2° (Epoch: 09 December)

Event Time Altitude Azimuth Distance (km) Brightness Sun altitude
Rises 18:58:03 0° 159° (SSE) 3,230 6.3 -15.4°
Reaches altitude 10° 19:00:24 10° 154° (SSE) 2,302 5.4 -16.0°
Maximum altitude 19:05:20 52° 78° (ENE) 945 3.1 -17.1°
Drops below altitude 10° 19:10:14 10° 2° (N) 2,291 5.2 -18.2°
Sets 19:12:34 0° 358° (N) 3,214 6.0 -18.7°
